Погода в Лисицино

Россия / Костромская область     58°38′38″N   44°32′39″E
темп.,
°C
ветер,
м/с
пор.,
м/с
влажн.,
%
обл.,
%
осадки,
мм/ч
давл.,
гПа
погр.,
м
15 августа, пн
пн1500:00+14вюв23764 0.0 102343
03:00+13в22830 0.0 102416
06:00+15вюв12790 0.0 102464
09:00+21вюв12571 0.0 1024454
12:00+25юв11475 0.0 10241539
15:00+26всв01410 0.0 10232036
18:00+23всв11580 0.0 102314
21:00+17ююв22765 0.0 102414
16 августа, вт
вт1600:00+16ююв22800 0.0 102519
03:00+15ююв22855 0.0 102613
06:00+16ююв128051 0.0 102663
09:00+22ююв225725 0.0 1026489
12:00+26ююв224456 0.0 10251585
15:00+26юв214183 0.0 10242062
18:00+23ююв2462100 0.0 102495
21:00+18ю227287 0.0 102530
17 августа, ср
ср1700:00+16ю227748 0.0 102616
03:00+15ююв117736 0.0 102511
06:00+16ююв227677 0.0 102557
09:00+22ююв24558 0.0 1025468
12:00+25ююв344289 0.0 10241783
15:00+25ююв3341100 0.0 10231975
18:00+22ю116211 0.0 102311
21:00+17юв11705 0.0 102311
18 августа, чт
чт1800:00+16вюв11731 0.0 102311
03:00+15юв11780 0.0 102311
06:00+16вюв11770 0.0 102415
09:00+23в12540 0.0 1023446
12:00+26юв23414 0.0 10232087
15:00+27вюв22375 0.0 10232240
18:00+24вюв225827 0.0 102333
21:00+21юв226397 0.0 102336
19 августа, пт
пт1900:00+20в226766 0.0 102430
03:00+16вюв12741 0.0 102511
06:00+17вюв11727 0.0 102527
09:00+23вюв23520 0.0 1026334
12:00+27юв35380 0.0 10262368
15:00+25ююв2450100 0.0 1025471
18:00+22юв266198 0.0 1026126
21:00+19юв22664 0.0 102620